Regional Weather Roundup
Issued by NWS

Home | Current Version | Previous Version | Text Only | Print | Product List | Glossary On
Versions: 1 2 3 4 5 6 7 8 9 10 11 12 13 14 15 16 17 18 19 20 21 22 23 24 25 26 27 28 29 30 31 32 33 34 35 36 37 38 39 40 41 42 43 44 45 46 47 48 49 50
000
ASUS43 KDTX 041201
RWRMI
MICHIGAN HOURLY REGIONAL WEATHER ROUNDUP
NATIONAL WEATHER SERVICE DETROIT/PONTIAC MI
800 AM EDT MON MAY 04 2015

NOTE: "FAIR" INDICATES FEW OR NO CLOUDS BELOW 12,000 FEET WITH NO
SIGNIFICANT WEATHER AND/OR OBSTRUCTION TO VISIBILITY.

MIZ047>049-052>055-059>063-066>070-074>076-081>083-041300-
SOUTHEAST LOWER MICHIGAN

CITY           SKY/WX    TMP DP  RH WIND       PRES   REMARKS
ADRIAN         PTSUNNY   64  49  57 SW12      30.04R
6HR MIN TEMP:  60; 6HR MAX TEMP:  65;

ALMA           CLOUDY    61  57  87 S8        29.94S
ANN ARBOR      CLOUDY    61  50  67 SW6       30.04R
BAD AXE        LGT RAIN  62  54  74 SW8       29.97F
CARO           CLOUDY    59  57  94 S7        29.96F
DETROIT CITY   CLOUDY    63  50  62 S6        30.03S
6HR MIN TEMP:  61; 6HR MAX TEMP:  67; 6HR PCP: TRACE;

DETROIT        CLOUDY    65  49  56 S6        30.04S
6HR MIN TEMP:  61; 6HR MAX TEMP:  66;

FLINT          LGT RAIN  60  56  86 S8        29.99F
6HR MIN TEMP:  60; 6HR MAX TEMP:  72; 6HR PCP:  0.06;

GROSSE ILE     CLOUDY    61  54  77 S6        30.03S
HILLSDALE      CLOUDY    61  50  65 S9        30.02S
6HR MIN TEMP:  61; 6HR MAX TEMP:  66;

HOWELL         CLOUDY    60  55  86 S8        30.01S

CITY           SKY/WX    TMP DP  RH WIND       PRES   REMARKS
JACKSON        CLOUDY    62  52  69 S9        30.01R
6HR MIN TEMP:  58; 6HR MAX TEMP:  68; 6HR PCP:  0.12;

LAMBERTVILLE   PTSUNNY   64  48  55 S7        30.05S
LANSING        CLOUDY    61  53  75 S14       29.97F
6HR MIN TEMP:  59; 6HR MAX TEMP:  68; 6HR PCP:  0.10;

LAPEER         DRIZZLE   62  53  72 SW10      30.01S
MASON          CLOUDY    59  53  81 S8        29.99F
MONROE         CLOUDY    64  50  59 S8        30.03S
MT. CLEMENS    CLOUDY    62  52  69 S8        30.01S
6HR MIN TEMP:  55; 6HR MAX TEMP:  63; 6HR PCP: TRACE;

PONTIAC        CLOUDY    61  53  75 CALM      30.03R
6HR MIN TEMP:  61; 6HR MAX TEMP:  68; 6HR PCP: TRACE;

PORT HOPE        N/A     65  52  62 SW10G18   29.94S
6HR MIN TEMP:  64; 6HR MAX TEMP:  68;

PORT HURON     LGT RAIN  61  50  67 S6        30.03S
TRI CITIES     CLOUDY    61  57  87 S10       29.94F
6HR MIN TEMP:  61; 6HR MAX TEMP:  70; 6HR PCP:  0.05;

MIDLAND        FAIR      60  58  91 S5        29.92S
TROY           CLOUDY    64  50  60 SW7       30.05S
SAGINAW HB     CLOUDY    59  59 100 S9        29.94F
$$
MIZ043>046-050>051-056>058-064>065-071>073-077>080-041300-
SOUTHWEST LOWER MICHIGAN

CITY           SKY/WX    TMP DP  RH WIND       PRES   REMARKS
BATTLE CREEK   CLOUDY    62  51  67 S10       29.98R
6HR MIN TEMP:  59; 6HR MAX TEMP:  68; 6HR PCP:  0.18;

BENTON HARBOR  CLOUDY    62  50  64 S6        29.98R
6HR MIN TEMP:  61; 6HR MAX TEMP:  67;

BIG RAPIDS     LGT RAIN  58  55  89 S5        29.92S
6HR MIN TEMP:  58; 6HR MAX TEMP:  64; 6HR PCP:  0.11;

COLDWATER      CLOUDY    64  47  55 SW10G16   30.00S
6HR MIN TEMP:  60; 6HR MAX TEMP:  67;

FREMONT        CLOUDY    58  55  92 S3        29.92R
HOLLAND        CLOUDY    60  49  66 SW14G22   29.97R
6HR MIN TEMP:  60; 6HR MAX TEMP:  63; 6HR PCP:  0.14;

GRAND RAPIDS   CLOUDY    61  52  72 S10       29.95R
6HR MIN TEMP:  58; 6HR MAX TEMP:  67; 6HR PCP:  0.44;

IONIA          CLOUDY    62  54  74 S10       29.94R
KALAMAZOO      CLOUDY    63  50  62 S10       29.97S
6HR MIN TEMP:  59; 6HR MAX TEMP:  69; 6HR PCP:  0.26;

LUDINGTON      CLOUDY    56  52  86 SW5       29.92F
6HR MIN TEMP:  53; 6HR MAX TEMP:  68; 6HR PCP:  0.14;

MARSHALL       CLOUDY    60  51  73 S9        29.98F
MOUNT PLEASANT CLOUDY    60  56  89 S9        29.93R
6HR MIN TEMP:  58; 6HR MAX TEMP:  65; 6HR PCP:  0.14;

MUSKEGON       CLOUDY    53  45  74 S10       29.93R
6HR MIN TEMP:  53; 6HR MAX TEMP:  65; 6HR PCP:  0.10;

SOUTH HAVEN    CLOUDY    64  49  58 W13G21    29.97R
$$
MIZ016>042-041300-
NORTHERN LOWER MICHIGAN

CITY           SKY/WX    TMP DP  RH WIND       PRES   REMARKS
ALPENA         LGT RAIN  61  52  72 W6        29.93R
6HR MIN TEMP:  54; 6HR MAX TEMP:  69; 6HR PCP:  0.01;

BEAVER ISLAND  CLOUDY    48  47  97 W8        29.95R FOG
6HR MIN TEMP:  47; 6HR MAX TEMP:  55;

BELLAIRE       LGT RAIN  57  55  93 CALM      29.93R
6HR MIN TEMP:  57; 6HR MAX TEMP:  63;

CADILLAC       CLOUDY    57  55  94 S5        29.93R
CHARLEVOIX     DRIZZLE   51  51  98 W5        29.97R
6HR MIN TEMP:  48; 6HR MAX TEMP:  61;

FRANKFORT      CLOUDY    58  52  82 W16       29.96R HAZE
GAYLORD        LGT RAIN  56  56 100 SW7       29.94R
6HR MIN TEMP:  55; 6HR MAX TEMP:  65; 6HR PCP:  0.03;

GRAYLING       LGT RAIN  56  55  94 CALM      29.94R
HARBOR SPRINGS RAIN      45  44  97 CALM      29.95R VSB 3/4
HOUGHTON LAKE  RAIN      58  55  90 SW3       29.95  FOG
6HR MIN TEMP:  58; 6HR MAX TEMP:  64; 6HR PCP:  0.05;

MANISTEE       CLOUDY    55  52  88 CALM      29.95R
OSCODA         RAIN      60  56  89 SW8       29.93S
PELLSTON       LGT RAIN  56  53  90 W5        29.93R
6HR MIN TEMP:  56; 6HR MAX TEMP:  61; 6HR PCP:  0.02;

ROGERS CITY    RAIN      53  50  90 N3        29.93R
TRAVERSE CITY  LGT RAIN  59  55  87 NW6       29.93R
6HR MIN TEMP:  59; 6HR MAX TEMP:  66; 6HR PCP:  0.02;

$$
MIZ007>008-015-041300-
EASTERN UPPER MICHIGAN

CITY           SKY/WX    TMP DP  RH WIND       PRES   REMARKS
KINROSS        CLOUDY    52  52 100 W8        29.90R
6HR MIN TEMP:  52; 6HR MAX TEMP:  57;

MACKINAC ISLAN CLOUDY    46  46 100 SW10      29.92R FOG
6HR MIN TEMP:  45; 6HR MAX TEMP:  54;

NEWBERRY       CLOUDY    51  45  81 NW10G20   29.92R
6HR MIN TEMP:  51; 6HR MAX TEMP:  53;

S. S. MARIE    CLOUDY    53  51  93 NW3       29.90R FOG
6HR MIN TEMP:  53; 6HR MAX TEMP:  59; 6HR PCP:  0.19;

MUNISING         N/A     46  34  62 N8        29.97R
6HR MIN TEMP:  46; 6HR MAX TEMP:  60;

$$
MIZ004>006-011>014-085-041300-
CENTRAL UPPER MICHIGAN

CITY           SKY/WX    TMP DP  RH WIND       PRES   REMARKS
MANISTIQUE     CLOUDY    49  43  79 NW10      29.94R
6HR MIN TEMP:  45; 6HR MAX TEMP:  54;

ESCANABA       CLOUDY    54  48  82 NW6       29.96R
6HR MIN TEMP:  52; 6HR MAX TEMP:  59;

MENOMINEE      PTSUNNY   57  48  72 N7        29.98R
6HR MIN TEMP:  57; 6HR MAX TEMP:  59; 6HR PCP:  0.03;

SAWYER-GWINN   SUNNY     50  37  62 CALM      29.97R
$$
MIZ001>003-009>011-084-041300-
WESTERN UPPER MICHIGAN

CITY           SKY/WX    TMP DP  RH WIND       PRES   REMARKS
IRON MOUNTAIN  SUNNY     53  42  66 NW7       29.99R
6HR MIN TEMP:  48; 6HR MAX TEMP:  55;

HOUGHTON       SUNNY     47  36  65 NW10      30.01R
6HR MIN TEMP:  44; 6HR MAX TEMP:  54;

COPPER HARBOR    N/A     47  36  65 N13       30.00R
6HR MIN TEMP:  47; 6HR MAX TEMP:  57;

IRONWOOD       SUNNY     45  36  70 CALM      30.05R
6HR MIN TEMP:  43; 6HR MAX TEMP:  52;

$$

ABBREVIATIONS USED IN REMARKS
   TC - TEMPERATURE IN CELSIUS
  WCI - WIND CHILL INDEX
   HX - HEAT INDEX
  VSB - VISIBILITY




USA.gov is the U.S. government's official web portal to all federal, state and local government web resources and services.